Location: Ch�risy
(50.2331°N, 2.9131°E)
Time: 23:37:45
(UTC+00:00)

NOSS 3-4 (C) - Pass Details

Date: 17 January 2021
Orbit: 878 x 1335 km, 63.4° (Epoch: 16 February)

Event Time Altitude Azimuth Distance (km) Brightness Sun altitude
Rises 18:16:46 0° 251° (WSW) 3,497 8.0 -18.5°
Reaches altitude 10° 18:19:20 10° 259° (W) 2,588 7.0 -18.9°
Maximum altitude 18:25:01 42° 330° (NNW) 1,331 4.3 -19.8°
Enters shadow 18:29:13 19° 32° (NNE) 2,168 5.0 -20.5°
